| time (UTC) | temp C | wind direction | speed KPH | gust KPH | rain 1hr cm | rain 24hr cm | rain mn cm | humidity % | barometer mb |
| 20260507095330 | 25 | 243 | 0.0 | 4.8 | 0.00 | 0.00 | 0.00 | 35 | 1005.9 |
| 20260507094330 | 25 | 319 | 0.0 | 4.8 | 0.00 | 0.00 | 0.00 | 35 | 1006.1 |
| 20260507093330 | 24 | 133 | 1.6 | 4.8 | 0.00 | 0.00 | 0.00 | 35 | 1006.0 |
| 20260507092330 | 24 | 52 | 0.0 | 3.2 | 0.00 | 0.00 | 0.00 | 34 | 1006.0 |
| 20260507091330 | 24 | 300 | 3.2 | 4.8 | 0.00 | 0.00 | 0.00 | 35 | 1006.1 |
| 20260507090330 | 23 | 320 | 3.2 | 4.8 | 0.00 | 0.00 | 0.00 | 37 | 1006.1 |
| 20260507085330 | 23 | 120 | 1.6 | 4.8 | 0.00 | 0.00 | 0.00 | 37 | 1006.2 |
| 20260507084330 | 22 | 82 | 3.2 | 3.2 | 0.00 | 0.00 | 0.00 | 38 | 1006.1 |
| 20260507083330 | 22 | 41 | 3.2 | 4.8 | 0.00 | 0.00 | 0.00 | 39 | 1006.1 |
| 20260507082330 | 21 | 235 | 0.0 | 1.6 | 0.00 | 0.00 | 0.00 | 41 | 1006.1 |
| 20260507081330 | 21 | 185 | 1.6 | 3.2 | 0.00 | 0.00 | 0.00 | 42 | 1006.1 |
| 20260507080330 | 20 | 106 | 3.2 | 3.2 | 0.00 | 0.00 | 0.00 | 43 | 1006.2 |
| 20260507075330 | 20 | 67 | 3.2 | 6.4 | 0.00 | 0.00 | 0.00 | 46 | 1005.8 |
| 20260507074330 | 20 | 161 | 3.2 | 6.4 | 0.00 | 0.00 | 0.00 | 46 | 1005.8 |
| 20260507073330 | 19 | 239 | 0.0 | 3.2 | 0.00 | 0.00 | 0.00 | 46 | 1005.9 |
| 20260507072330 | 18 | 327 | 1.6 | 4.8 | 0.00 | 0.00 | 0.00 | 51 | 1006.3 |
| 20260507071330 | 18 | 124 | 1.6 | 3.2 | 0.00 | 0.00 | 0.00 | 50 | 1006.2 |
| 20260507070330 | 18 | 195 | 0.0 | 3.2 | 0.00 | 0.00 | 0.00 | 53 | 1006.1 |
| 20260507065330 | 17 | 147 | 3.2 | 4.8 | 0.00 | 0.00 | 0.00 | 53 | 1006.0 |
| 20260507064330 | 17 | 27 | 3.2 | 6.4 | 0.00 | 0.00 | 0.00 | 55 | 1006.2 |
| 20260507063330 | 16 | 62 | 0.0 | 4.8 | 0.00 | 0.00 | 0.00 | 57 | 1006.1 |
| 20260507062330 | 15 | 148 | 1.6 | 6.4 | 0.00 | 0.00 | 0.00 | 58 | 1006.1 |
| 20260507061330 | 16 | 182 | 0.0 | 3.2 | 0.00 | 0.00 | 0.00 | 58 | 1005.8 |
| 20260507060330 | 15 | 107 | 3.2 | 6.4 | 0.00 | 0.00 | 0.00 | 62 | 1006.0 |
| 20260507055330 | 15 | 82 | 3.2 | 6.4 | 0.00 | 0.00 | 0.00 | 63 | 1006.0 |
| 20260507054330 | 14 | 195 | 0.0 | 1.6 | 0.00 | 0.00 | 0.00 | 67 | 1006.2 |
| 20260507053330 | 13 | 39 | 3.2 | 4.8 | 0.00 | 0.00 | 0.00 | 68 | 1006.2 |
| 20260507052509 | 13 | 149 | 0.0 | 8.0 | 0.00 | 0.00 | 0.00 | 68 | 1006.0 |
| 20260507051509 | 13 | 136 | 3.2 | 9.7 | 0.00 | 0.00 | 0.00 | 66 | 1005.9 |
| 20260507050509 | 13 | 76 | 3.2 | 6.4 | 0.00 | 0.00 | 0.00 | 69 | 1006.1 |
| 20260507045717 | 13 | 181 | 0.0 | 8.0 | 0.00 | 0.00 | 0.00 | 70 | 1006.2 |
| 20260507045547 | 13 | 160 | 6.4 | 6.4 | 0.00 | 0.00 | 0.00 | 70 | 1006.1 |
| 20260507044547 | 12 | 162 | 4.8 | 6.4 | 0.00 | 0.00 | 0.00 | 71 | 1006.2 |
| 20260507043547 | 12 | 136 | 4.8 | 6.4 | 0.00 | 0.00 | 0.00 | 75 | 1006.0 |
| 20260507042547 | 11 | 99 | 3.2 | 6.4 | 0.00 | 0.00 | 0.00 | 77 | 1006.0 |
| 20260507041547 | 11 | 43 | 0.0 | 6.4 | 0.00 | 0.00 | 0.00 | 78 | 1005.9 |
| 20260507040547 | 11 | 327 | 0.0 | 3.2 | 0.00 | 0.00 | 0.00 | 80 | 1005.7 |
| 20260507035547 | 11 | 212 | 0.0 | 6.4 | 0.00 | 0.00 | 0.00 | 80 | 1005.9 |
| 20260507034547 | 10 | 320 | 0.0 | 4.8 | 0.00 | 0.00 | 0.00 | 83 | 1005.8 |
| 20260507033547 | 10 | 341 | 0.0 | 9.7 | 0.00 | 0.00 | 0.00 | 83 | 1005.7 |
| 20260507032547 | 10 | 284 | 4.8 | 6.4 | 0.00 | 0.00 | 0.00 | 84 | 1005.7 |
| 20260507031547 | 10 | 178 | 1.6 | 8.0 | 0.00 | 0.00 | 0.00 | 84 | 1005.8 |
| 20260507030547 | 10 | 26 | 1.6 | 8.0 | 0.00 | 0.00 | 0.00 | 84 | 1005.5 |
| 20260507025547 | 10 | 209 | 0.0 | 8.0 | 0.00 | 0.00 | 0.00 | 83 | 1005.5 |
| 20260507024547 | 10 | 45 | 3.2 | 6.4 | 0.00 | 0.00 | 0.00 | 83 | 1005.3 |
| 20260507023547 | 10 | 36 | 3.2 | 9.7 | 0.00 | 0.00 | 0.00 | 82 | 1005.6 |
| 20260507022547 | 10 | 31 | 4.8 | 6.4 | 0.00 | 0.00 | 0.00 | 82 | 1005.7 |
| 20260507021547 | 10 | 152 | 3.2 | 6.4 | 0.00 | 0.00 | 0.00 | 81 | 1005.3 |
| 20260507020547 | 10 | 51 | 3.2 | 8.0 | 0.00 | 0.00 | 0.00 | 82 | 1005.3 |
| 20260507015547 | 10 | 35 | 1.6 | 6.4 | 0.00 | 0.00 | 0.00 | 81 | 1005.2 |
| 20260507014547 | 10 | 11 | 1.6 | 6.4 | 0.00 | 0.00 | 0.00 | 81 | 1005.4 |
| 20260507013547 | 10 | 28 | 4.8 | 9.7 | 0.00 | 0.00 | 0.00 | 80 | 1005.2 |
| 20260507012547 | 11 | 154 | 1.6 | 8.0 | 0.00 | 0.00 | 0.00 | 79 | 1005.3 |
| 20260507011547 | 11 | 3 | 3.2 | 9.7 | 0.00 | 0.00 | 0.00 | 78 | 1005.4 |
| 20260507010547 | 11 | 121 | 6.4 | 12.9 | 0.00 | 0.00 | 0.00 | 78 | 1005.3 |
| 20260507005547 | 11 | 56 | 3.2 | 6.4 | 0.00 | 0.00 | 0.00 | 77 | 1005.1 |
| 20260507004547 | 11 | 280 | 3.2 | 4.8 | 0.00 | 0.00 | 0.00 | 76 | 1005.3 |
| 20260507003547 | 11 | 59 | 4.8 | 9.7 | 0.00 | 0.00 | 0.00 | 75 | 1005.2 |
| 20260507002547 | 11 | 169 | 1.6 | 9.7 | 0.00 | 0.00 | 0.00 | 75 | 1005.2 |
| 20260507001547 | 11 | 292 | 4.8 | 9.7 | 0.00 | 0.00 | 0.00 | 75 | 1005.0 |
| 20260507000547 | 11 | 36 | 3.2 | 8.0 | 0.00 | 0.00 | 0.00 | 75 | 1005.0 |
| 20260506235547 | 12 | 131 | 1.6 | 6.4 | 0.00 | 0.00 | 0.00 | 74 | 1005.1 |
| 20260506234547 | 12 | 313 | 0.0 | 4.8 | 0.00 | 0.00 | 0.00 | 73 | 1005.2 |
| 20260506233547 | 12 | 15 | 3.2 | 6.4 | 0.00 | 0.00 | 0.00 | 73 | 1005.1 |
| 20260506232547 | 12 | 203 | 0.0 | 4.8 | 0.00 | 0.00 | 0.00 | 72 | 1005.2 |
| 20260506231547 | 12 | 22 | 0.0 | 3.2 | 0.00 | 0.00 | 0.00 | 69 | 1005.2 |
| 20260506230547 | 13 | 336 | 0.0 | 1.6 | 0.00 | 0.00 | 0.00 | 65 | 1005.3 |
| 20260506225547 | 13 | 25 | 0.0 | 1.6 | 0.00 | 0.00 | 0.00 | 61 | 1005.3 |
| 20260506224547 | 13 | 344 | 1.6 | 1.6 | 0.00 | 0.00 | 0.00 | 61 | 1005.4 |
| 20260506223547 | 13 | 69 | 0.0 | 0.0 | 0.00 | 0.00 | 0.00 | 60 | 1005.3 |
| 20260506222547 | 14 | 32 | 0.0 | 0.0 | 0.00 | 0.00 | 0.00 | 60 | 1005.4 |
| 20260506221547 | 14 | 297 | 0.0 | 0.0 | 0.00 | 0.00 | 0.00 | 58 | 1005.4 |
| 20260506220547 | 15 | 218 | 0.0 | 3.2 | 0.00 | 0.00 | 0.00 | 57 | 1005.1 |
| 20260506215547 | 15 | 154 | 0.0 | 3.2 | 0.00 | 0.00 | 0.00 | 56 | 1005.0 |
| 20260506214547 | 15 | 93 | 0.0 | 3.2 | 0.00 | 0.00 | 0.00 | 55 | 1004.8 |
| 20260506213547 | 15 | 337 | 0.0 | 1.6 | 0.00 | 0.00 | 0.00 | 54 | 1005.0 |
| 20260506212547 | 15 | 235 | 0.0 | 3.2 | 0.00 | 0.00 | 0.00 | 55 | 1005.0 |
| 20260506211547 | 15 | 316 | 0.0 | 3.2 | 0.00 | 0.00 | 0.00 | 56 | 1004.8 |
| 20260506210547 | 15 | 135 | 0.0 | 3.2 | 0.00 | 0.00 | 0.00 | 58 | 1004.9 |
| 20260506205547 | 16 | 135 | 0.0 | 1.6 | 0.00 | 0.00 | 0.00 | 58 | 1004.9 |
| 20260506204547 | 16 | 111 | 0.0 | 1.6 | 0.00 | 0.00 | 0.00 | 55 | 1004.7 |
| 20260506203547 | 16 | 113 | 0.0 | 3.2 | 0.00 | 0.00 | 0.00 | 54 | 1005.0 |
| 20260506202547 | 16 | 264 | 0.0 | 0.0 | 0.00 | 0.00 | 0.00 | 55 | 1004.7 |
| 20260506201547 | 16 | 343 | 0.0 | 3.2 | 0.00 | 0.00 | 0.00 | 58 | 1004.5 |
| 20260506200547 | 16 | 246 | 0.0 | 1.6 | 0.00 | 0.00 | 0.00 | 58 | 1004.6 |
| 20260506195547 | 17 | 75 | 3.2 | 3.2 | 0.00 | 0.00 | 0.00 | 58 | 1004.8 |
| 20260506194547 | 17 | 160 | 0.0 | 3.2 | 0.00 | 0.00 | 0.00 | 57 | 1004.8 |
| 20260506193547 | 17 | 131 | 0.0 | 1.6 | 0.00 | 0.00 | 0.00 | 56 | 1004.6 |
| 20260506192547 | 17 | 323 | 1.6 | 3.2 | 0.00 | 0.00 | 0.00 | 55 | 1004.7 |
| 20260506191547 | 18 | 269 | 0.0 | 3.2 | 0.00 | 0.00 | 0.00 | 54 | 1004.6 |
| 20260506190547 | 17 | 135 | 0.0 | 3.2 | 0.00 | 0.00 | 0.00 | 54 | 1004.2 |
| 20260506185547 | 17 | 57 | 0.0 | 3.2 | 0.00 | 0.00 | 0.00 | 55 | 1004.5 |
| 20260506184547 | 17 | 126 | 3.2 | 3.2 | 0.00 | 0.00 | 0.00 | 56 | 1004.2 |
| 20260506183547 | 17 | 117 | 0.0 | 3.2 | 0.00 | 0.00 | 0.00 | 57 | 1004.1 |
| 20260506182547 | 18 | 350 | 1.6 | 3.2 | 0.00 | 0.00 | 0.00 | 56 | 1004.2 |
| 20260506181547 | 18 | 136 | 0.0 | 4.8 | 0.00 | 0.00 | 0.00 | 54 | 1003.9 |
| 20260506180547 | 19 | 89 | 1.6 | 6.4 | 0.00 | 0.00 | 0.00 | 53 | 1003.8 |
| 20260506175547 | 19 | 343 | 0.0 | 6.4 | 0.00 | 0.00 | 0.00 | 52 | 1003.6 |
| 20260506174547 | 20 | 139 | 3.2 | 6.4 | 0.00 | 0.00 | 0.00 | 51 | 1003.8 |
| 20260506173547 | 20 | 88 | 3.2 | 6.4 | 0.00 | 0.00 | 0.00 | 50 | 1003.6 |
| 20260506172547 | 21 | 44 | 0.0 | 3.2 | 0.00 | 0.00 | 0.00 | 48 | 1003.5 |
| 20260506171547 | 21 | 87 | 0.0 | 3.2 | 0.00 | 0.00 | 0.00 | 46 | 1003.5 |
| 20260506170547 | 21 | 81 | 0.0 | 3.2 | 0.00 | 0.00 | 0.00 | 44 | 1003.3 |
| 20260506165547 | 21 | 65 | 0.0 | 4.8 | 0.00 | 0.00 | 0.00 | 43 | 1003.5 |
| 20260506164547 | 22 | 59 | 8.0 | 8.0 | 0.00 | 0.00 | 0.00 | 42 | 1003.4 |
| 20260506163547 | 22 | 68 | 3.2 | 6.4 | 0.00 | 0.00 | 0.00 | 41 | 1003.2 |
| 20260506162547 | 22 | 85 | 1.6 | 3.2 | 0.00 | 0.00 | 0.00 | 41 | 1003.3 |
| 20260506161547 | 22 | 47 | 3.2 | 6.4 | 0.00 | 0.00 | 0.00 | 41 | 1003.2 |
| 20260506160547 | 23 | 68 | 4.8 | 8.0 | 0.00 | 0.00 | 0.00 | 40 | 1003.3 |
| 20260506155547 | 23 | 74 | 1.6 | 9.7 | 0.00 | 0.00 | 0.00 | 40 | 1003.2 |
| 20260506154547 | 23 | 20 | 1.6 | 8.0 | 0.00 | 0.00 | 0.00 | 40 | 1003.2 |
| 20260506153547 | 23 | 57 | 1.6 | 8.0 | 0.00 | 0.00 | 0.00 | 39 | 1003.4 |
| 20260506152547 | 23 | 88 | 0.0 | 8.0 | 0.00 | 0.00 | 0.00 | 38 | 1003.4 |
| 20260506151547 | 24 | 91 | 3.2 | 8.0 | 0.00 | 0.00 | 0.00 | 37 | 1003.3 |
| 20260506150547 | 24 | 0 | 0.0 | 4.8 | 0.00 | 0.00 | 0.00 | 38 | 1003.6 |
| 20260506145547 | 24 | 113 | 1.6 | 4.8 | 0.00 | 0.00 | 0.00 | 36 | 1003.3 |
| 20260506144547 | 25 | 359 | 3.2 | 3.2 | 0.00 | 0.00 | 0.00 | 36 | 1003.2 |
| 20260506143547 | 25 | 99 | 0.0 | 8.0 | 0.00 | 0.00 | 0.00 | 35 | 1003.5 |
| 20260506142547 | 26 | 60 | 0.0 | 3.2 | 0.00 | 0.00 | 0.00 | 33 | 1003.3 |
| 20260506141547 | 26 | 289 | 0.0 | 1.6 | 0.00 | 0.00 | 0.00 | 34 | 1003.3 |
| 20260506140547 | 26 | 212 | 0.0 | 3.2 | 0.00 | 0.00 | 0.00 | 34 | 1003.6 |
| 20260506135547 | 26 | 53 | 1.6 | 3.2 | 0.00 | 0.00 | 0.00 | 34 | 1003.3 |
| 20260506134547 | 26 | 284 | 0.0 | 1.6 | 0.00 | 0.00 | 0.00 | 35 | 1003.3 |
| 20260506133547 | 26 | 56 | 1.6 | 4.8 | 0.00 | 0.00 | 0.00 | 35 | 1003.4 |
| 20260506132547 | 26 | 54 | 3.2 | 3.2 | 0.00 | 0.00 | 0.00 | 34 | 1003.7 |
| 20260506131547 | 26 | 314 | 0.0 | 3.2 | 0.00 | 0.00 | 0.00 | 35 | 1003.6 |
| 20260506130547 | 26 | 209 | 0.0 | 3.2 | 0.00 | 0.00 | 0.00 | 35 | 1003.7 |
| 20260506125547 | 26 | 206 | 6.4 | 6.4 | 0.00 | 0.00 | 0.00 | 34 | 1003.7 |
| 20260506124547 | 27 | 355 | 0.0 | 3.2 | 0.00 | 0.00 | 0.00 | 35 | 1003.7 |
| 20260506123547 | 26 | 323 | 0.0 | 4.8 | 0.00 | 0.00 | 0.00 | 33 | 1003.9 |
| 20260506122547 | 27 | 126 | 0.0 | 1.6 | 0.00 | 0.00 | 0.00 | 34 | 1003.7 |
| 20260506121547 | 26 | 198 | 1.6 | 3.2 | 0.00 | 0.00 | 0.00 | 35 | 1004.1 |
| 20260506120547 | 25 | 59 | 0.0 | 3.2 | 0.00 | 0.00 | 0.00 | 36 | 1004.1 |
| 20260506115547 | 26 | 133 | 4.8 | 4.8 | 0.00 | 0.00 | 0.00 | 35 | 1004.3 |
| 20260506114547 | 26 | 227 | 0.0 | 3.2 | 0.00 | 0.00 | 0.00 | 33 | 1004.3 |
| 20260506113547 | 26 | 278 | 1.6 | 6.4 | 0.00 | 0.00 | 0.00 | 34 | 1004.6 |
| 20260506112547 | 26 | 318 | 1.6 | 3.2 | 0.00 | 0.00 | 0.00 | 35 | 1004.4 |
| 20260506111547 | 25 | 106 | 0.0 | 4.8 | 0.00 | 0.00 | 0.00 | 36 | 1004.4 |
| 20260506110547 | 26 | 315 | 0.0 | 4.8 | 0.00 | 0.00 | 0.00 | 35 | 1004.7 |
| 20260506105547 | 26 | 85 | 0.0 | 3.2 | 0.00 | 0.00 | 0.00 | 35 | 1004.6 |
| 20260506104547 | 25 | 55 | 0.0 | 3.2 | 0.00 | 0.00 | 0.00 | 35 | 1004.5 |
| 20260506103547 | 25 | 249 | 0.0 | 1.6 | 0.00 | 0.00 | 0.00 | 37 | 1004.6 |
| 20260506102547 | 25 | 325 | 0.0 | 3.2 | 0.00 | 0.00 | 0.00 | 37 | 1004.8 |
| 20260506101547 | 25 | 183 | 0.0 | 3.2 | 0.00 | 0.00 | 0.00 | 37 | 1004.7 |
| 20260506100547 | 25 | 118 | 1.6 | 4.8 | 0.00 | 0.00 | 0.00 | 35 | 1004.8 |